User: anonymous   Login
Location: Newark
(44.3681°N, 100.3364°W)
Time: 05:32:45
(UTC+00:00)
Language:

Tiros 1 - Orbit

View from above orbital plane
View from above orbital plane
View from above satellite
View from above satellite

Ground track
Ground track

The orbit data is extracted from the following two-line orbital elements,

1    29U 60002B   20055.47412870 -.00000115  00000-0  13946-4 0  9999
2    29  48.3794 126.5165 0023503 105.5067 254.8443 14.74342465201846
Epoch (UTC): 24 February 2020 11:22:44
Eccentricity: 0.0023503
inclination: 48.3794°
perigee height: 631 km
apogee height: 664 km
right ascension of ascending node: 126.5165°
argument of perigee: 105.5067°
revolutions per day: 14.74342465
mean anomaly at epoch: 254.8443°
orbit number at epoch: 20184

The dashed part of the orbit path shows where the satellite is in the earth's shadow,  

DLR